User: anonymous   Login
Location: Nairn
(57.5833°N, 3.8667°W)
Time: 18:33:38
(UTC+00:00)
Language:

Cosmos 1674 - Orbit

View from above orbital plane
View from above orbital plane
View from above satellite
View from above satellite

Ground track
Ground track

The orbit data is extracted from the following two-line orbital elements,

1 15944U 85069A   20298.19377955  .00001309  00000-0  59182-4 0  9990
2 15944  82.5052  94.2816 0016807 179.3652 180.7608 15.19924602923937
Epoch (UTC): 24 October 2020 04:39:02
Eccentricity: 0.0016807
inclination: 82.5052°
perigee height: 494 km
apogee height: 517 km
right ascension of ascending node: 94.2816°
argument of perigee: 179.3652°
revolutions per day: 15.19924602
mean anomaly at epoch: 180.7608°
orbit number at epoch: 92393

The dashed part of the orbit path shows where the satellite is in the earth's shadow,  

DLR